This is the latest recevied weather packets stored in our database for station/object KE4LOJ. If no packets are shown the sender has not sent any weather packets the latest 10 day(s).
| Time | Temp. | Humidity | Pressure | Rain* | Wind** | Luminosity | Snow |
|---|---|---|---|---|---|---|---|
| 1777506565 | 30° C | 51% | 1011.5 hPa | 0 mm | - | 8 W/m² | - |
| 1777506261 | 30° C | 50% | 1011.6 hPa | 0 mm | - | 11 W/m² | - |
| 1777505957 | 30° C | 50% | 1011.8 hPa | 0 mm | - | 15 W/m² | - |
| 1777505653 | 30° C | 49% | 1011.5 hPa | 0 mm | - | 18 W/m² | - |
| 1777505350 | 30.56° C | 48% | 1011.5 hPa | 0 mm | - | 22 W/m² | - |
| 1777505046 | 30.56° C | 48% | 1011.6 hPa | 0 mm | - | 26 W/m² | - |
| 1777504743 | 30.56° C | 48% | 1011.6 hPa | 0 mm | - | 29 W/m² | - |
| 1777504441 | 30.56° C | 48% | 1011.7 hPa | 0 mm | - | 36 W/m² | - |
| 1777504136 | 30.56° C | 48% | 1011.6 hPa | 0 mm | - | 39 W/m² | - |
| 1777503831 | 30.56° C | 48% | 1011.2 hPa | 0 mm | - | 51 W/m² | - |
| 1777503528 | 31.11° C | 47% | 1011.4 hPa | 0 mm | - | 45 W/m² | - |
| 1777503224 | 31.11° C | 47% | 1011.4 hPa | 0 mm | - | 63 W/m² | - |
| 1777502922 | 31.11° C | 46% | 1011.3 hPa | 0 mm | - | 55 W/m² | - |
| 1777502619 | 31.11° C | 46% | 1011.5 hPa | 0 mm | - | 90 W/m² | - |
| 1777502316 | 31.11° C | 47% | 1011.5 hPa | 0 mm | - | 79 W/m² | - |
| 1777502012 | 31.67° C | 47% | 1011.5 hPa | 0 mm | - | 63 W/m² | - |
| 1777501709 | 31.67° C | 46% | 1011.6 hPa | 0 mm | - | 137 W/m² | - |
| 1777501407 | 31.67° C | 46% | 1011.6 hPa | 0 mm | - | 189 W/m² | - |
| 1777501104 | 31.11° C | 46% | 1011.6 hPa | 0 mm | - | 209 W/m² | - |
| 1777500802 | 31.67° C | 46% | 1011.8 hPa | 0 mm | - | 229 W/m² | - |
| 1777500500 | 31.67° C | 46% | 1011.7 hPa | 0 mm | - | 233 W/m² | - |
| 1777500195 | 31.67° C | 46% | 1011.6 hPa | 0 mm | - | 252 W/m² | - |
| 1777499892 | 31.67° C | 46% | 1011.6 hPa | 0 mm | - | 186 W/m² | - |
| 1777499589 | 31.67° C | 46% | 1011.8 hPa | 0 mm | - | 203 W/m² | - |
| 1777499286 | 31.67° C | 45% | 1011.8 hPa | 0 mm | - | 307 W/m² | - |
* Rain latest hour (hover to see other rain measurements)
** Current wind speed in m/s (hover to see current wind gust speed)